Location: Keewatin
(47.4004°N, 93.0827°W)
Time: 05:03:02
(UTC+00:00)

Envisat - Visible Passes

Search period start: 08 December 2019 00:00
Search period end: 18 December 2019 00:00
Orbit: 764 x 766 km, 98.1° (Epoch: 07 December)

Date Brightness Start Highest point End Pass type
(mag) Time Alt. Az. Time Alt. Az. Time Alt. Az.
08 Dec 3.8 00:30:27 10° S 00:35:23 52° W 00:40:23 10° NNW visible
08 Dec 4.4 12:35:58 10° NNE 12:40:49 43° E 12:45:38 10° S visible
08 Dec 2.9 23:53:31 10° SSE 23:58:35 77° ENE 00:03:40 10° N visible
09 Dec 5.9 01:35:16 10° WSW 01:38:12 15° W 01:41:08 10° NW visible
09 Dec 5.7 11:59:55 10° NE 12:03:45 21° E 12:07:33 10° SE visible
09 Dec 3.5 23:17:18 10° SE 23:21:57 38° ENE 23:26:38 10° N visible
10 Dec 4.8 00:56:33 10° SSW 01:01:02 31° W 01:05:33 10° NNW visible
10 Dec 3.4 13:01:18 10° NNE 13:06:24 72° ESE 13:11:28 10° S visible
11 Dec 3.4 00:19:02 10° S 00:24:05 65° WSW 00:29:09 10° NNW visible
11 Dec 4.8 12:24:50 10° NNE 12:29:29 35° E 12:34:05 10° SSE visible
11 Dec 3.0 23:42:19 10° SSE 23:47:19 62° ENE 23:52:21 10° N visible
12 Dec 5.6 01:23:13 10° SW 01:26:47 19° W 01:30:22 10° NW visible
12 Dec 5.9 11:49:03 10° NE 11:52:21 17° E 11:55:37 10° SE visible
12 Dec 3.7 23:06:20 10° SE 23:10:45 31° ENE 23:15:12 10° N visible
13 Dec 4.4 00:44:57 10° SSW 00:49:41 38° W 00:54:26 10° NNW visible
13 Dec 3.8 12:50:04 10° NNE 12:55:06 58° E 13:00:06 10° S visible
14 Dec 3.1 00:07:42 10° S 00:12:47 80° WSW 00:17:54 10° NNW visible
14 Dec 6.2 01:51:16 10° W 01:52:37 11° W 01:54:00 10° WNW visible
14 Dec 5.2 12:13:45 10° NE 12:18:07 28° E 12:22:27 10° SSE visible
14 Dec 3.1 23:31:12 10° SE 23:36:05 50° ENE 23:41:00 10° N visible
15 Dec 5.3 01:11:21 10° SW 01:15:23 23° W 01:19:25 10° NW visible
15 Dec 6.1 11:38:24 10° ENE 11:40:55 14° E 11:43:25 10° ESE visible
15 Dec 3.0 13:15:30 10° NNE 13:20:37 85° WNW 13:25:42 10° SSW visible
15 Dec 3.9 22:55:26 10° ESE 22:59:34 26° ENE 23:03:43 10° N visible
16 Dec 4.0 00:33:27 10° S 00:38:21 48° W 00:43:16 10° NNW visible
16 Dec 4.2 12:38:51 10° NNE 12:43:46 46° E 12:48:39 10° S visible
16 Dec 2.9 23:56:25 10° SSE 00:01:30 83° ENE 00:06:36 10° NNW visible
17 Dec 6.0 01:38:34 10° WSW 01:41:10 14° W 01:43:49 10° NW visible
17 Dec 5.5 12:02:44 10° NE 12:06:44 23° E 12:10:42 10° SE visible
17 Dec 3.4 23:20:07 10° SE 23:24:51 41° ENE 23:29:37 10° N visible
